Chillicothe, MO

3:52 PM CDT on July 25, 2016 (GMT -0500)
Chillicothe

Weather History for KCDJ - January, 2014

Change the Weather History Date:

Wednesday, January 1, 2014

  Actual Average (KIRK) Record (KIRK)
Temperature  
Mean Temperature 16 °F 26 °F  
Max Temperature 21 °F 35 °F 55 °F (1965)
Min Temperature 10 °F 18 °F -13 °F (1974)
Degree Days  
Heating Degree Days 50 39  
Month to date heating degree days 39  
Since 1 July heating degree days 2382  
Cooling Degree Days 0 0  
Month to date cooling degree days 0  
Year to date cooling degree days 0  
Moisture  
Dew Point 10 °F    
Average Humidity 75    
Maximum Humidity 81    
Minimum Humidity 65    
Precipitation  
Precipitation 0.24 in 0.04 in 3.83 in (1965)
Month to date precipitation 0.04  
Year to date precipitation 0.04  
Sea Level Pressure  
Sea Level Pressure 30.24 in    
Wind  
Wind Speed 8 mph (NNE)    
Max Wind Speed 14 mph    
Max Gust Speed 23 mph    
T = Trace of Precipitation, MM = Missing Value Source: NWS Daily Summary

Daily Weather History Graph

Daily Weather History Graph

Search for Another Location

Airport or City:

Trip Planner

Search our weather history database for the weather conditions in past years. The results will help you decide how hot, cold, wet, or windy it might be!

Date:

Astronomy

Jan. 01, 2014 Rise Set
Actual Time 7:35 AM CST 5:00 PM CST
Civil Twilight 7:05 AM CST 5:30 PM CST
Nautical Twilight 6:31 AM CST 6:04 PM CST
Astronomical Twilight 5:58 AM CST 6:37 PM CST
Moon 7:26 AM CST (1/1) 5:46 PM CST (1/1)
Length of Visible Light 10h 25m
Length of Day
9h 24m
New Moon, 0% of the Moon is Illuminated
Jan 1
New Moon
Jan 7
First Quarter
Jan 15
Full
Jan 23
Last Quarter
Jan 30
New

Hourly Weather History & Observations

Time (CST) Temp. Windchill Dew Point Humidity Pressure Visibility Wind Dir Wind Speed Gust Speed Precip Events Conditions
12:52 AM 19.9 °F 11.1 °F 15.1 °F 81% 30.17 in - NNE 6.9 mph - N/A   Unknown
1:52 AM 19.9 °F 12.1 °F 14.0 °F 78% 30.16 in - ENE 5.8 mph - N/A   Unknown
2:52 AM 19.0 °F 9.0 °F 12.9 °F 77% 30.16 in - NNE 8.1 mph - N/A   Unknown
3:52 AM 18.0 °F 9.8 °F 12.9 °F 81% 30.15 in - NNE 5.8 mph - N/A   Unknown
4:52 AM 17.1 °F 7.6 °F 12.0 °F 81% 30.14 in - NNE 6.9 mph - N/A   Unknown
5:52 AM 17.1 °F 7.6 °F 10.9 °F 77% 30.16 in - NNE 6.9 mph - N/A   Unknown
6:52 AM 18.0 °F 7.7 °F 12.0 °F 78% 30.17 in - NNE 8.1 mph - N/A   Unknown
7:52 AM 18.0 °F 6.9 °F 10.9 °F 74% 30.19 in - NNE 9.2 mph - N/A   Unknown
8:52 AM 17.1 °F 4.3 °F 10.0 °F 74% 30.22 in - NNE 11.5 mph 18.4 mph N/A   Unknown
9:52 AM 17.1 °F 6.6 °F 10.9 °F 77% 30.25 in - NE 8.1 mph - N/A   Unknown
10:52 AM 19.0 °F 8.2 °F 10.9 °F 71% 30.24 in - NE 9.2 mph - N/A   Unknown
11:52 AM 19.0 °F 9.0 °F 10.9 °F 71% 30.23 in - North 8.1 mph - N/A   Unknown
12:52 PM 19.9 °F 7.9 °F 10.9 °F 68% 30.20 in - North 11.5 mph - N/A   Unknown
1:52 PM 21.0 °F 9.9 °F 10.9 °F 65% 30.19 in - NNE 10.4 mph - N/A   Unknown
2:52 PM 19.9 °F 6.7 °F 10.0 °F 65% 30.19 in - North 13.8 mph 20.7 mph N/A   Unknown
3:52 PM 17.1 °F 3.0 °F 9.0 °F 71% 30.23 in - North 13.8 mph 19.6 mph N/A   Unknown
4:52 PM 14.0 °F -0.8 °F 9.0 °F 80% 30.26 in - North 13.8 mph 23.0 mph 0.03 in   Unknown
5:52 PM 12.9 °F -0.2 °F 8.1 °F 81% 30.29 in - North 10.4 mph 21.9 mph 0.09 in   Unknown
6:52 PM 12.9 °F 3.8 °F 8.1 °F 81% 30.32 in - North 5.8 mph - 0.05 in   Unknown
7:52 PM 12.0 °F -0.4 °F 7.0 °F 80% 30.34 in - North 9.2 mph 21.9 mph 0.03 in   Unknown
8:52 PM 12.0 °F -0.4 °F 6.1 °F 77% 30.35 in - NNW 9.2 mph - 0.03 in   Unknown
9:52 PM 12.0 °F -2.7 °F 3.9 °F 70% 30.36 in - North 12.7 mph 23.0 mph 0.01 in   Unknown
10:52 PM 10.9 °F -0.8 °F 3.0 °F 70% 30.38 in - NNW 8.1 mph 17.3 mph N/A   Unknown
11:52 PM 10.0 °F -4.5 °F 1.9 °F 70% 30.37 in - North 11.5 mph 19.6 mph N/A   Unknown